Location: Newark
(1.4692°S, 78.8175°W)
Time: 08:40:36
(UTC+00:00)

ISS - Visible Passes

Search period start: 22 March 2019 00:00
Search period end: 01 April 2019 00:00
Orbit: 406 x 411 km, 51.6° (Epoch: 22 March)

Date Brightness Start Highest point End Pass type
(mag) Time Alt. Az. Time Alt. Az. Time Alt. Az.
22 Mar -2.9 09:54:27 43° NNE 09:54:48 45° NE 09:57:58 10° SE visible
23 Mar -1.9 10:39:42 13° WSW 10:40:12 14° SW 10:41:59 10° SSW visible
24 Mar -1.0 09:51:58 11° S 09:51:58 11° S 09:52:12 10° SSE visible
